Regional Weather Roundup
Issued by NWS

Home | Current Version | Previous Version | Text Only | Print | Product List | Glossary On
Versions: 1 2 3 4 5 6 7 8 9 10 11 12 13 14 15 16 17 18 19 20 21 22 23 24 25 26 27
000
ASUS45 KTFX 250110
RWRMT
MONTANA REGIONAL WEATHER ROUNDUP
NATIONAL WEATHER SERVICE GREAT FALLS MT
700 PM MDT SUN SEP 24 2017

NOTE: "FAIR" INDICATES FEW OR NO CLOUDS BELOW 12000 FEET WITH NO
SIGNIFICANT WEATHER AND/OR OBSTRUCTIONS TO VISIBILITY.

MTZ001>007-043-250200-
WEST OF THE DIVIDE

CITY           SKY/WX    TMP DP  RH WIND       PRES   REMARKS
KALISPELL      CLOUDY    56  40  55 S7        30.04F
MISSOULA       PTCLDY    53  38  56 NW6       30.06R
BUTTE          CLOUDY    49  25  39 S3        30.08S
MULLAN PASS    CLOUDY    41  33  73 VRB3      30.11S
ANACONDA         N/A     45  34  65 SW3       30.07S
DEER LODGE       N/A     52  28  40 W3        30.08S
EUREKA           N/A     61  36  39 MISG      30.00F
HAMILTON         N/A     54  36  50 CALM      30.07R
LIBBY            N/A     61  36  39 S3        30.01S
PLAINS           N/A     60  42  51 CALM      30.06S
$$

MTZ008-052>055-250200-
SOUTHWEST MONTANA

CITY           SKY/WX    TMP DP  RH WIND       PRES   REMARKS
BOZEMAN        CLOUDY    49  33  54 S6        30.08S
DILLON         CLEAR     45  28  51 NE7       30.06S
W YELLOWSTONE  CLOUDY    41  28  60 NE9       30.06R
ENNIS          CLOUDY    46  28  49 E9        30.12R
THREE FORKS      N/A     51  33  50 CALM      30.06S
TWIN BRIDGES     N/A     50  26  39 MISG      30.05R
$$

MTZ009-010-012-014-046-048-049-054-250200-
EAST SLOPES AND CENTRAL MONTANA

CITY           SKY/WX    TMP DP  RH WIND       PRES   REMARKS
CUT BANK       CLOUDY    54  25  32 SE5       30.01S
GREAT FALLS    CLEAR     53  27  36 SE5       30.04S
MALMSTROM AFB  CLEAR     54  25  32 CALM      30.04S
HELENA         CLEAR     56  27  32 SE5       30.04S
BOWMANS CRNR     N/A     50  25  37 CALM      30.02S
CHOTEAU          N/A     52  28  40 SE5       30.05R
FAIRFIELD        N/A     53  31  44 SE6       30.03S
POWER            N/A     52  26  35 S3        30.03S
RAYNESFORD       N/A     51  28  40 SE7       30.05S
ULM              N/A     52  29  41 SE3       30.04S
$$

MTZ011-013-016-021-045-047-050-051-250200-
NORTH CENTRAL MONTANA

CITY           SKY/WX    TMP DP  RH WIND       PRES   REMARKS
HAVRE          MOCLDY    56  35  45 E7        30.04S
LEWISTOWN      CLOUDY    48  35  60 S7        30.08S
N BAR RANCH    CLOUDY    45  37  76 S3        30.12R
CHINOOK          N/A     55  36  47 SE3       30.05S
DENTON           N/A     48  34  58 S8        30.04R
GEYSER           N/A     48  34  58 SE9       30.05S
JUDITH GAP     MOCLDY    45  36  72 S12       30.08S
WINIFRED         N/A     47  33  58 E7        30.06S
$$

MTZ017>020-022>027-061-062-250200-
NORTHEAST MONTANA

CITY           SKY/WX    TMP DP  RH WIND       PRES   REMARKS
GLASGOW        CLOUDY    51  37  58 CALM      30.10R
JORDAN           N/A     48  39  71 S6        30.10S
SIDNEY           N/A    N/A N/A N/A MISG        N/A
WOLF POINT     CLOUDY    51  38  60 CALM      30.11S
MALTA          CLOUDY    52  37  58 SE6       30.08S
PLENTYWOOD       N/A     50  37  62 CALM      30.10S
POPLAR           N/A     48  39  71 E5        30.11S
SCOBEY           N/A     48  32  54 MISG      30.08S
$$

MTZ028>42-056>058-250200-
SOUTHCENTRAL AND SOUTHEAST MONTANA

CITY           SKY/WX    TMP DP  RH WIND       PRES   REMARKS
BAKER          CLOUDY    45  38  76 N5        30.13R
BILLINGS       CLOUDY    50  37  61 E7        30.09S
LIVINGSTON     CLOUDY    47  35  63 E6        30.08R
MILES CITY     CLOUDY    48  38  68 S3        30.12S
BIG TIMBER     CLOUDY    46  36  66 SE7       30.12R
EKALAKA          N/A     41  37  85 CALM      30.09R
HARLOWTON      CLOUDY    48  36  64 MISG      30.09R
LAUREL           N/A     48  36  61 CALM      30.10S
ROUNDUP          N/A     50  35  56 E3        30.00
$$

REGIONAL REPORTS...DAKOTAS

CITY           SKY/WX    TMP DP  RH WIND       PRES   REMARKS
WILLISTON      MOCLDY    47  43  86 W3        30.12R
MINOT          CLOUDY    49  45  86 NW10      30.08R
DICKINSON      CLOUDY    45  41  86 NW6       30.09S
BEACH            N/A     41  41 100 N5        30.15R
CROSBY           N/A     48  45  87 W3        30.11S
TIOGA          CLOUDY    46  46 100 CALM      30.11S
BISMARCK       CLOUDY    51  46  83 NW9       30.08R
GRAND FORKS    CLOUDY    52  50  93 NW13G22   29.95R
FARGO          CLOUDY    53  51  93 NW15      29.95R
BUFFALO SD       N/A     46  40  79 NW10      30.05R
RAPID CITY     CLOUDY    48  41  76 N10       30.09S
$$

REGIONAL REPORTS...WYOMING/IDAHO/WASHINGTON

CITY           SKY/WX    TMP DP  RH WIND       PRES   REMARKS
GILLETTE       CLOUDY    43  38  82 N8        30.09F
SHERIDAN       CLOUDY    45  39  79 NE5       30.12R
BUFFALO WY     CLOUDY    42  35  76 NE6       30.12S
CODY           CLOUDY    43  35  73 NE3       30.11S
IDAHO FALLS    CLOUDY    50  35  56 NW9       30.03R
SALMON         CLOUDY    52  33  48 N5        30.06S
BOISE          CLEAR     63  33  32 NW16      30.00R
SPOKANE        MOCLDY    63  39  41 W8        30.05S
$$

REGIONAL REPORTS...ALBERTA

CITY           SKY/WX    TMP DP  RH WIND       PRES   REMARKS
EDMONTON       CLOUDY    57  48  72 W3        29.91S
CALGARY        MOCLDY    57  32  38 S9        29.96R
LETHBRIDGE     PTCLDY    54  30  40 SE7       29.98S
MEDICINE HAT   PTCLDY    57  32  38 S3        30.00S
$$

REGIONAL REPORTS...SASKATCHEWAN

CITY           SKY/WX    TMP DP  RH WIND       PRES   REMARKS
SWIFT CURRENT    N/A     52  32  46 S7        30.05S
REGINA         CLOUDY    52  34  50 E5        30.10S
SASKATOON      PTCLDY    52  39  62 E3        30.06S
$$




USA.gov is the U.S. government's official web portal to all federal, state and local government web resources and services.